Other Public Products
Issued by NWS Grand Forks, ND

Home | Current Version | Previous Version | Graphics & Text | Print | Product List | Glossary Off
Versions: 1 2 3 4 5 6 7 8 9 10 11 12 13 14 15 16 17 18 19 20 21 22 23 24 25 26 27 28 29 30 31 32 33 34 35 36 37 38 39 40 41 42 43 44 45 46 47 48 49 50

533
FPUS83 KFGF 232131
OPUFGF
PRAIRIE TO PINES WEATHER ROUNDUP
NATIONAL WEATHER SERVICE EASTERN NORTH DAKOTA/GRAND FORKS ND
400 PM CDT THU MAR 23 2017

 **SATELLITE DATA USED TO AUGMENT SKY COVER AT AUTOMATED STATIONS**
 *****  WEATHER ACROSS EASTERN NORTH DAKOTA  *****

CITY           SKY/WX    TMP DP  RH WIND       PRES   REMARKS
GRAND FORKS    LGT RAIN  36  35  96 SE14      29.75F
GRAND FORKS AF PTSUNNY   35  35  99 E5        29.75F
GRAND CITY NWS NOT AVBL
BUXTON         NOT AVBL
DEVILS LAKE    PTSUNNY   36  33  89 NW6       29.77R
FARGO          CLOUDY    38  34  85 SE14G21   29.76F
WAHPETON ARPT  CLOUDY    36  32  87 SE14      29.78F
$$

 *****  WEATHER ACROSS CENTRAL AND WESTERN NORTH DAKOTA  *****

CITY           SKY/WX    TMP DP  RH WIND       PRES   REMARKS
JAMESTOWN      LGT RAIN  43  38  82 NE8       29.70F
BISMARCK       CLOUDY    41  37  86 N7        29.73F
MINOT          FAIR      42  34  73 N10       29.75S
MINOT AFB      FAIR      40  34  79 N9        29.75R
GARRISON         N/A     42  33  70 W5        29.75R
WILLISTON      FAIR      56  38  50 NE7       29.75S
DICKINSON      CLOUDY    48  38  68 NE5       29.73F
HETTINGER      CLOUDY    45  39  79 NE21G28   29.74F
$$

 *****  OTHER OBSERVATIONS NORTHEAST NORTH DAKOTA  *****

CITY           SKY/WX    TMP DP  RH WIND       PRES   REMARKS
WALHALLA       NOT AVBL
LANGDON        NOT AVBL
CAVALIER       NOT AVBL
GRAFTON        MOCLDY    36  36 100 SE7G13    29.78F
CANDO          NOT AVBL
FORT TOTTEN      N/A     36  34  92 N5        29.95S
ROLLA          FAIR      36  36 100 CALM      29.76R
RUGBY            N/A     34  34 100 CALM      29.76R
 ***** THE ABOVE OBSERVATIONS ARE NON NWS ARE NOT QUALITY
        CONTROLLED AND MAY MIS-REPORT RAIN FOR SNOW...
$$

 *****  OTHER OBSERVATIONS SOUTHEAST NORTH DAKOTA *****

CITY           SKY/WX    TMP DP  RH WIND       PRES   REMARKS
COOPERSTOWN    MIX PCPN  36  36 100 S5        29.76S
VALLEY CITY    MOCLDY    41  36  81 SE14      29.76R
OAKES          NOT AVBL
GWINNER        CLOUDY    37  37 100 MISG      29.73F FOG
SHEYENNE NWR     N/A     37  35  91 SE13      29.95S
BUFFALO        NOT AVBL
WYNDMERE         N/A     37  37 100 SE12        N/A
 ***** THE ABOVE OBSERVATIONS ARE NON NWS ARE NOT QUALITY
       CONTROLLED AND MAY MIS-REPORT RAIN FOR SNOW...
$$

  *****  WEATHER ACROSS NORTHERN MINNESOTA  *****

CITY           SKY/WX    TMP DP  RH WIND       PRES   REMARKS
FLAG ISLAND    CLOUDY    34  30  86 S14       29.79F WCI  24
WARROAD        CLOUDY    37  34  87 S5        29.81F
ROSEAU         FAIR      37  34  87 S10       29.80F
HALLOCK        FAIR      36  34  93 S10       29.80R FOG
THF RVR FALLS  RAIN     N/A N/A N/A S12       29.82F
HALSTAD          N/A     38  30  73 S21         N/A
FOSSTON        PTSUNNY   37  36  93 CALM      29.82S
BAUDETTE       LGT RAIN  35  32  88 S10       29.82F
WASKISH        LGT RAIN  34  34 100 SE7       29.85F
CROOKSTON      MIX PCPN  34  34 100 SE10      29.77F
$$
  *****  WEATHER ACROSS CENTRAL AND WEST MINNESOTA  *****

CITY           SKY/WX    TMP DP  RH WIND       PRES   REMARKS
BEMIDJI        CLOUDY    35  32  88 E6        29.83F
PARK RAPIDS    LGT RAIN  37  27  67 SE9       29.82F
WADENA         CLOUDY    36  28  75 SE9       29.82S
DETROIT LAKES  CLOUDY    36  32  87 SE13      29.81F
MOORHEAD       CLOUDY    36  34  93 SE15G21   29.78F
FERGUS FALLS   CLOUDY    36  36 100 SE9       29.84F FOG
ELBOW LAKE     DRIZZLE   34  34  99 CALM      29.81F
MORRIS MN      DRIZZLE   37  36  93 SE12      29.80S
STAPLES        LGT RAIN  36  30  80 CALM      29.83F
WHEATON        CLOUDY    37  36  93 SE12G17   29.80F FOG
$$
  *****  WEATHER ELSEWHERE ACROSS MINNESOTA  *****

CITY           SKY/WX    TMP DP  RH WIND       PRES   REMARKS
DULUTH         CLOUDY    34  27  75 S12       29.91F
INTRNTL FALLS  LGT RAIN  34  30  85 S3        29.87S FOG
ELY            MIX PCPN  32  28  86 S3        29.90F
CLOQUET        MIX PCPN  36  28  75 SE6       29.90F
BRAINERD       CLOUDY    38  25  59 S8        29.88F
HIBBING        MIX PCPN  32  30  92 SE3       29.90F
ALEXANDRIA     LGT RAIN  35  31  85 SE12      29.82R FOG
SAINT CLOUD    CLOUDY    36  32  85 SE5       29.87S
MINNEAPOLIS    CLOUDY    39  28  64 SE10      29.92F
$$

  *****  WEATHER ACROSS SOUTH DAKOTA  *****

CITY           SKY/WX    TMP DP  RH WIND       PRES   REMARKS
SIOUX FALLS    CLOUDY    49  40  71 SE12      29.71F
BROOKINGS      LGT RAIN  40  38  93 SE15      29.71F FOG
WATERTOWN      CLOUDY    38  37  97 SE10      29.71F FOG
HURON          CLOUDY    47  38  71 SE13      29.67F
SISSETON         N/A     37  37 100 SE10      29.75F
ABERDEEN       CLOUDY    43  33  68 SE10      29.70F
MITCHELL       CLOUDY    52  43  71 SE10      29.67F
PIERRE         FAIR      63  41  44 E12       29.57F
MOBRIDGE       FAIR      61  35  37 N15       29.63R
RAPID CITY     PTSUNNY   53  43  68 N30G40    29.68R
$$

  *****  SOME WEATHER IN NEARBY STATES *****

CITY           SKY/WX    TMP DP  RH WIND       PRES   REMARKS
GLASGOW MT     FAIR      60  30  32 NW12      29.76F
GREAT FALLS MT FAIR      55  15  20 W10G26    29.84F
CHEYENNE WY    FAIR      64  14  14 NW6       29.61F
SCOTTSBLUFF NE FAIR      69  37  30 SE12      29.57F
OMAHA NE       CLOUDY    71  50  47 SE12      29.71F
DES MOINES IA  CLOUDY    56  36  47 SE17G23   29.87F
DAVENPORT IA   CLOUDY    41  34  76 SE16G29   30.06F
CHICAGO IL     CLOUDY    48  24  39 S16G24    30.18F
EAU CLAIRE WI  CLOUDY    42  22  44 SE14      29.95F
LA CROSSE WI   PTSUNNY   44  28  53 SE22G32   29.90F
$$

  *****  SOME NATIONAL WEATHER *****

CITY           SKY/WX    TMP DP  RH WIND       PRES   REMARKS
LA GUARDIA NY  FAIR      44  -1  15 NW10      30.50F
RALEIGH NC     FAIR      55  16  21 VRB5      30.53F
ATLANTA GA     PTSUNNY   63  39  41 SE10G23   30.38S
NEW ORLEANS LA FAIR      81  60  48 SE10      30.16F
OKLAHOMA CITY  FAIR      83  50  31 S28G36    29.81F
ALBUQUERQUE NM LGT RAIN  52  31  44 W28G49    29.79R
SALT LAKE CITY LGT SNOW  34  32  92 NE5       29.92R FOG
LOS ANGELES CA FAIR      65  44  46 W15       30.13S
BOISE ID       FAIR      53  25  33 NW14G22   30.03F
SEATTLE WA     PTSUNNY   54  35  48 SE12      30.01F
$$

*** WEATHER ACROSS MANITOBA...SASKATCHEWAN AND ONTARIO ***
                ***ONTARIO***

CITY           SKY/WX    TMP DP  RH WIND       PRES   REMARKS
GERALDTON      CLOUDY    32  25  74 S17G28    29.92F WCI  21
THUNDER BAY    CLOUDY    36  27  69 S7        29.97F
SIOUX LOOKOUT  CLOUDY    39  25  56 SW12G20   29.77F
TORONTO        MOSUNNY   36   9  32 S9        30.43F
BIG TROUT LK   FLURRIES  30  28  93 SW8       29.62  WCI  23
PICKLE LAKE    MOSUNNY   41  25  52 SW22G31   29.68F
DRYDEN         PTSUNNY   39  25  56 SW17G25   29.77F
KENORA         CLOUDY    37  25  60 SW14G23   29.77F
$$
                *** MANITOBA***

CITY           SKY/WX    TMP DP  RH WIND       PRES   REMARKS
BRANDON        PTSUNNY   39  30  70 NW9       29.75F
DAUPHIN        SUNNY     39  30  70 W12       29.77R
ISLAND LAKE    FRZ DRZL  32  30  93 W14       29.68R FOG     WCI  22
PILOT MOUND      N/A     34  32  93 SW5         N/A
THE PAS        CLOUDY    27  19  74 NW13      29.85R WCI  16
THOMPSON       CLOUDY    28  19  69 N12G18    29.79R WCI  18
WINNIPEG       PTSUNNY   37  30  75 S12       29.77S
LYNN LAKE      CLOUDY    27  16  63 N12G20    29.88R WCI  16
CHURCHILL      CRYSTALS   7   1  78 N29G36    29.96R WCI -16
GILLAM         FLURRIES  27  19  74 NE16      29.76R WCI  14
$$
                ***SASKATCHEWAN***

CITY           SKY/WX    TMP DP  RH WIND       PRES   REMARKS
ESTEVAN        PTSUNNY   37  34  87 W8        29.78S
KINDERSLEY     SUNNY     43  30  61 E6        29.78F
LLOYDMINSTER   CLOUDY    27  25  93 SW3       29.86R
PRINCE ALBERT  PTSUNNY   34  21  60 N8        29.87R
REGINA         MOSUNNY   48  32  53 NW8       29.77F
YORKTON        SUNNY     37  25  60 N10       29.78S



USA.gov is the U.S. government's official web portal to all federal, state and local government web resources and services.